#timestamp,LO_Frequency,Hit,StdDev 
1512691215.4,286046997.4,N
1512691235.3,286046999.5,N
1512691255.1,286047005.9,N
1512691275.9,286047003.9,N
1512691295.7,286047002.6,N
1512691315.5,286047005.7,N
1512691335.4,286047002.0,N
1512691355.2,286047003.6,N
1512691375.0,286047004.1,N
1512691375.9,286047004.1,N
1512691395.8,286047002.6,N
1512691415.6,286047003.5,N
1512691435.5,286047003.9,N
1512691455.3,286047003.2,N
1512691475.1,286046999.9,N
1512691495.9,286046999.9,N
1512691515.7,286047002.6,N
1512691535.5,286047003.4,N
1512691555.4,286047000.8,N
1512691575.2,286047005.7,N
1512691595.1,286047005.9,N
1512691596.0,286047005.9,N
1512691615.8,286047007.0,N
1512691635.6,286047010.6,N
1512691655.5,286047007.9,N
1512691675.3,286047010.5,N
1512691695.2,286047003.2,N
1512691715.9,286047002.4,N
1512691735.7,286047001.3,N
1512691755.6,286047002.2,N
1512691775.4,286047000.3,N
1512691795.2,286046999.4,N
1512691815.1,286046995.3,N
1512691816.0,286046995.3,N
1512691835.8,286047000.1,N
1512691855.7,286047000.9,N
1512691875.5,286047005.9,N
1512691895.3,286047003.1,N
1512691915.2,286047005.1,N
1512691935.0,286047004.1,N
1512691935.9,286047004.1,N
1512691955.8,286047002.1,N
1512691975.6,286046998.4,N
1512691995.4,286046999.1,N
1512692015.3,286046993.9,N
1512692035.1,286046997.7,N
1512692055.8,286046994.2,N
1512692075.7,286046997.6,N
1512692095.5,286046995.0,N
1512692115.4,286047000.5,N
1512692135.2,286047001.2,N
1512692155.0,286046999.9,N
1512692155.9,286046999.9,N
1512692175.8,286046998.3,N
1512692195.6,286046998.7,N
1512692215.4,286047002.2,N
1512692235.3,286047000.2,N
1512692255.1,286046998.8,N
1512692275.9,286047002.6,N
1512692295.7,286047006.9,N
1512692315.5,286047003.4,N
1512692335.4,286047003.3,N
1512692355.2,286047004.8,N
1512692375.1,286046999.7,N
1512692376.0,286046999.7,N
1512692395.8,286047002.3,N
1512692415.6,286047004.1,N
1512692435.5,286047004.7,N
1512692455.3,286047005.8,N
1512692475.1,286047003.8,N
1512692495.9,286047006.7,N
1512692515.7,286047006.9,N
1512692535.6,286047004.9,N
1512692555.4,286047000.1,N
1512692575.2,286047004.2,N
1512692595.1,286047006.3,N
1512692596.0,286047006.3,N
1512692615.8,286047010.7,Y
1512692635.7,286047005.8,P
1512692655.5,286047008.4,P
1512692675.3,286047006.4,N
1512692695.2,286047011.7,Y
1512692715.0,286047003.7,P
1512692715.9,286047003.7,P
1512692735.7,286047004.3,P
1512692755.6,286047005.4,Y
1512692775.4,286046996.5,P
1512692795.3,286046998.0,N
1512692815.1,286046989.4,P
1512692835.8,286046991.8,N
1512692855.7,286046994.3,N
1512692875.5,286046993.7,N
1512692895.4,286046991.0,N
1512692915.2,286046986.9,N
1512692935.0,286046991.6,N
1512692935.9,286046991.6,N
1512692955.8,286046988.8,N
1512692975.6,286046993.7,N
1512692995.4,286046995.2,N
1512693015.3,286046997.5,N
1512693035.1,286046993.7,N
1512693055.9,286046992.2,N
1512693075.7,286046992.6,N
1512693095.5,286046991.3,N
1512693115.4,286046988.6,Y
1512693135.2,286046997.4,P
1512693155.1,286047001.1,N
1512693156.0,286047001.1,N
1512693175.8,286047002.8,N
1512693195.6,286046999.2,N
1512693215.5,286047000.2,N
1512693235.3,286046999.1,N
1512693255.1,286046999.7,N
1512693275.9,286047001.3,N
1512693295.7,286046999.9,N
1512693315.6,286047001.3,N
1512693335.4,286047005.7,N
1512693355.2,286047009.1,Y
1512693375.1,286047004.2,P
1512693376.0,286047004.2,N
1512693395.8,286047005.9,P
1512693415.7,286047003.9,N
1512693435.5,286047008.5,Y
1512693455.3,286047001.2,P
1512693475.2,286046995.3,P
1512693495.0,286046995.9,N
1512693495.9,286046995.9,N
1512693515.7,286046995.5,N
1512693535.6,286046990.5,N
1512693555.4,286046990.6,N
1512693575.3,286046993.6,N
1512693595.1,286046997.3,N
1512693596.0,286046997.3,N
1512693615.8,286046997.8,N
1512693635.7,286046996.4,N
1512693655.5,286046992.0,N
1512693675.4,286046990.3,N
1512693695.2,286046994.4,N
1512693715.0,286046988.7,Y
1512693715.9,286046988.7,P
1512693735.8,286046991.9,N
1512693755.6,286046998.1,N
1512693775.4,286047000.6,N
1512693795.3,286047001.2,N
1512693815.1,286047002.7,N
1512693835.9,286047001.7,N
1512693855.7,286047001.4,N
1512693875.5,286047001.4,N
1512693895.4,286047003.5,N
1512693915.2,286047000.1,N
1512693935.1,286047005.8,N
1512693936.0,286047005.8,N
1512693955.8,286047005.8,N
1512693975.6,286047004.7,N
1512693995.5,286047008.2,N
1512694015.3,286047007.7,N
1512694035.1,286047008.6,N
1512694055.9,286047010.6,N
1512694075.7,286047008.9,N
1512694095.6,286047005.4,N
1512694115.4,286047000.4,N
1512694135.2,286046999.9,N
1512694155.1,286047003.3,N
1512694156.0,286047003.3,N
1512694175.8,286047003.3,N
1512694195.7,286047003.4,N
1512694215.5,286047004.8,N
1512694235.3,286047004.7,N
1512694255.2,286047005.3,N
1512694275.0,286047005.1,N
1512694275.9,286047005.1,N
1512694295.8,286047004.2,N
1512694315.6,286047005.9,N
1512694335.4,286047002.1,N
1512694355.3,286047002.4,N
1512694375.1,286046999.7,N
1512694395.8,286047000.2,N
1512694415.7,286046999.3,N
1512694435.5,286047001.0,N
1512694455.4,286047003.8,N
1512694475.2,286047004.7,N
1512694495.0,286047002.5,N
1512694495.9,286047002.5,N
1512694515.8,286046996.7,N
1512694535.6,286046998.7,N
1512694555.5,286047005.7,N
1512694575.3,286047005.8,N
1512694595.1,286047008.6,N
1512694615.9,286047010.7,Y
1512694635.7,286047006.1,P
1512694655.6,286047004.5,P
1512694675.4,286047003.0,N
1512694695.2,286046998.0,N
1512694715.1,286046991.7,Y
1512694716.0,286046991.7,P
1512694735.8,286046990.9,N
1512694755.6,286046995.6,N
1512694775.5,286046994.5,N
1512694795.3,286046996.7,N
